[Date Prev][Date Next][Thread Prev][Thread Next] - [Date Index][Thread Index][Author Index]
2 Line ISS Keps 2-19
- Subject: [sarex] 2 Line ISS Keps 2-19
- From: "Dave Larsen PhD" <doc@xxxxxxxxxxx>
- Date: Tue, 19 Feb 2002 02:59:08 -0800
ISS
1 25544U 98067A 02050.18622758 .00071199 00000-0 79804-3 0 939
2 25544 51.6382 286.0213 0004937 93.9756 51.3935 15.62007228185622
----
Via the sarex mailing list at AMSAT.ORG courtesy of AMSAT-NA.
To unsubscribe, send "unsubscribe sarex" to Majordomo@amsat.org
AMSAT Home